Weather in Novy

Russia / Primorsky Krai     43°21′48″N   132°01′12″E
temp.,
°C
wind,
m/s
gust,
m/s
humid.,
%
clouds,
%
prec.,
mm/h
press.,
hPa
HPBL,
m
19 may, wed
wed1901:00+10sse34910 0.0 100953
04:00+9sse45941 0.0 100867
07:00+10sse35938 0.0 1009107
10:00+13s58799 0.0 1008307
13:00+14s587819 0.0 1008383
16:00+14s587819 0.0 1007308
19:00+12s499129 0.8 1007220
22:00+12se3396100 4.6 101155
20 may, thu
thu2001:00+10sw339821 0.3 100936
04:00+10sse229822 0.3 101023
07:00+10sse229833 0.0 101137
10:00+14s338630 0.0 1010178
13:00+16s4670100 0.0 1009234
16:00+16s5766100 0.0 1008217
19:00+13s4683100 0.0 1008121
22:00+12sse3389100 0.0 101038
21 may, fri
fri2101:00+11s2289100 0.0 100923
04:00+11s2290100 0.0 100713
07:00+11wnw0088100 0.0 100718
10:00+13ssw3381100 0.0 1007127
13:00+15sse3374100 0.0 1007141
16:00+15ssw3570100 0.0 1006181
19:00+13sse0181100 0.0 100514
22:00+12ssw1177100 0.0 100513
22 may, sat
sat2201:00+12s4579100 0.0 100576
04:00+11sse2385100 0.0 100439
07:00+11ese2288100 0.0 100555
10:00+14ese1272100 0.0 1004210
13:00+17sw226196 0.0 1004344
16:00+17s456382 0.0 1004273
19:00+13ssw467787 0.0 1005144
22:00+11se448819 0.0 100653
23 may, sun
sun2301:00+11se45928 0.0 100773
04:00+10sse459636 0.0 100783
07:00+11sse359210 0.0 1008117
10:00+13s6108116 0.0 1009334
13:00+14s812798 0.0 1009392
16:00+13s8137893 0.0 1009381
19:00+12s71484100 0.0 1008359
22:00+12s1287100 0.1 101040